Wind_Speed
7 7 6 6 5 5 5 5 5 5 5 5 5 6 6 6 6 6 7 7 7 7 8 8 9 10 11 12 12 11 10 9 7 6 6 6 6 6 5 5 5 5 6
7 6 7 6 5 5 5 5 5 5 4 4 4 4 4 5 5 5 5 5 6 6 6 7 7 8 8 9 10 10 9 8 7 6 5 5 5 5 4 4 4 5 6
7 6 6 5 5 5 5 4 4 4 4 4 3 4 4 4 5 5 5 6 6 6 6 6 6 6 7 7 7 8 8 7 6 5 4 4 4 4 4 4 4 5 6
7 6 5 5 4 4 5 4 4 4 4 4 4 4 5 5 5 6 7 7 8 8 8 8 7 7 7 7 6 6 6 5 5 4 3 2 2 3 3 3 4 4 5
7 6 5 4 4 4 4 5 5 5 5 5 5 6 6 7 8 8 9 9 10 10 10 10 10 9 8 8 7 6 5 4 3 2 1 1 1 2 3 3 4 4 5
8 8 6 5 5 5 4 5 5 6 6 6 7 7 8 8 9 10 10 11 12 12 12 12 12 11 11 10 10 9 8 6 4 3 1 2 2 3 3 3 4 4 5
8 8 7 6 6 5 5 6 6 7 8 8 8 9 9 9 10 11 12 12 13 14 14 14 14 14 14 13 13 12 11 9 7 6 5 4 4 4 4 4 4 5 6
9 9 8 8 7 7 7 8 8 9 9 9 10 10 11 11 12 12 13 14 14 15 15 16 16 16 16 16 16 15 15 13 11 10 8 7 6 6 6 6 6 6 6
11 10 10 10 9 9 9 10 10 11 11 12 12 12 12 13 13 14 14 15 16 17 17 18 19 18 18 19 19 18 18 17 15 14 12 11 10 9 9 8 8 8 7
13 12 12 12 12 12 12 12 13 14 14 15 15 15 15 15 16 16 17 17 18 19 20 20 21 21 21 21 21 20 20 20 19 18 17 15 14 12 11 11 10 10 9
14 14 15 15 15 16 15 16 17 17 17 17 17 17 18 18 19 19 20 20 20 21 22 22 23 23 23 23 23 22 22 22 22 22 21 19 18 16 15 14 14 13 12
17 18 18 18 19 20 20 20 21 21 20 20 20 20 21 21 22 22 23 24 23 23 24 25 25 25 25 25 24 24 24 24 24 24 24 23 22 20 19 18 17 16 15
20 20 20 20 21 22 23 24 25 26 24 23 23 23 24 24 24 25 26 26 26 27 26 27 27 28 27 27 26 26 25 25 25 26 26 26 25 24 23 21 20 20 18
21 21 22 22 23 25 26 26 26 26 25 25 25 25 26 27 27 28 28 29 29 29 29 29 30 30 30 29 28 27 25 25 25 27 28 27 27 27 26 24 23 23 21
21 21 23 24 24 24 24 24 25 25 25 25 26 27 28 28 28 29 30 30 31 32 32 31 32 31 31 30 30 28 27 26 25 24 27 28 28 29 28 28 27 25 25
20 21 22 23 23 24 24 25 25 25 26 26 26 28 28 29 29 30 30 31 33 33 32 32 32 32 31 30 30 30 28 27 25 25 25 27 28 30 30 30 30 28 27
19 20 21 22 24 25 25 26 27 27 26 26 27 28 28 29 30 31 32 32 33 33 33 33 32 31 31 31 31 30 30 29 27 26 26 27 27 30 31 32 32 31 30
19 19 21 23 23 24 25 26 27 27 27 28 28 29 30 30 31 32 32 33 33 34 34 34 33 32 32 32 31 31 31 30 29 28 28 28 28 29 31 32 33 34 32
19 20 21 22 22 23 24 26 27 27 28 29 30 30 31 32 32 33 33 33 33 34 34 34 34 33 33 33 32 32 31 31 30 29 29 29 28 28 30 32 33 35 34
19 19 20 21 23 24 25 26 27 28 29 30 31 31 32 33 33 34 34 34 34 34 34 34 34 34 34 34 33 33 32 31 31 31 31 30 29 29 30 32 33 35 36
18 19 21 22 23 25 26 27 28 29 30 31 32 32 33 33 34 34 34 34 34 34 34 34 34 34 35 34 34 33 33 32 32 32 32 31 30 30 31 32 34 35 36
18 19 21 23 24 26 27 29 30 31 32 33 33 33 33 33 33 33 33 34 34 34 34 34 34 35 35 35 34 34 33 33 34 33 33 33 32 31 31 32 34 35 36
18 20 22 24 26 27 29 30 31 32 33 33 33 33 33 32 32 32 32 33 33 33 34 34 34 34 35 35 35 34 34 34 34 35 34 34 34 32 32 33 34 36 36
19 21 23 25 27 28 30 30 31 31 32 32 33 33 33 33 32 32 33 33 33 34 34 34 34 34 34 35 35 35 35 34 35 35 35 35 35 34 34 34 35 37 38
20 22 23 25 26 27 28 29 29 30 30 30 31 31 32 32 32 32 32 33 33 34 34 35 34 34 35 35 36 36 35 35 35 35 35 35 35 35 35 35 35 37 39
20 22 23 24 25 26 27 28 28 28 29 29 30 30 31 32 33 33 33 33 33 34 34 35 35 35 35 35 36 36 36 35 35 35 35 36 37 36 36 36 36 38 39
Wind_Direction
360 357 351 348 354 4 9 14 24 34 40 44 47 44 37 32 30 29 28 27 26 26 28 31 32 33 34 37 41 45 47 51 57 63 70 78 85 91 96 101 111 119 119
352 346 341 345 354 4 6 7 12 21 30 33 36 36 28 20 14 11 8 5 5 6 8 13 17 18 21 25 30 38 44 47 53 60 69 76 86 96 100 104 112 119 120
339 332 331 340 353 360 359 359 360 6 11 11 10 8 4 358 353 348 343 341 340 340 341 344 350 353 357 3 11 21 31 38 46 55 66 75 89 103 109 116 122 126 128
326 320 322 333 339 343 346 347 347 344 343 342 339 334 331 328 324 321 319 319 319 319 319 319 321 323 326 332 341 353 5 18 33 48 62 80 99 121 126 132 140 143 141
319 314 312 317 323 324 327 328 326 324 320 319 316 314 314 312 310 307 306 306 307 306 305 304 305 304 303 304 309 314 324 334 350 16 52 111 147 158 156 155 158 158 155
313 307 304 306 307 307 309 311 312 312 310 308 306 307 307 307 308 307 306 304 302 300 299 297 296 294 291 288 289 290 290 292 293 289 262 215 199 189 180 177 179 175 168
312 303 297 297 298 299 298 300 302 304 305 303 304 305 304 304 304 306 307 305 302 299 296 294 291 287 283 281 279 278 277 274 269 264 252 235 221 210 197 191 192 192 183
305 295 290 288 286 288 290 292 295 296 297 298 299 300 299 300 299 301 301 301 301 300 296 292 291 288 283 277 274 271 270 268 263 257 250 241 232 223 213 205 201 201 200
298 287 282 282 282 282 284 288 290 292 294 295 295 296 297 297 297 297 296 296 296 297 298 295 291 289 286 280 274 270 267 265 261 255 249 243 237 230 223 216 209 207 206
295 285 278 278 278 280 281 284 287 289 289 290 291 294 294 293 292 291 292 293 294 295 295 295 293 290 287 283 277 271 265 263 260 255 250 245 240 235 228 222 216 212 210
286 282 277 277 277 276 278 281 282 283 284 283 283 286 289 289 288 288 290 292 292 292 293 293 293 291 288 285 280 273 266 261 258 255 251 247 242 237 232 228 223 219 215
283 281 277 275 276 276 277 277 277 278 279 280 278 279 282 284 284 284 286 287 288 288 289 290 289 290 288 286 284 279 271 261 257 254 251 248 244 239 235 231 228 224 221
284 282 278 275 274 276 277 275 273 274 271 272 274 275 279 281 281 281 282 284 285 286 286 286 286 287 285 283 282 281 277 266 258 253 251 249 245 242 238 234 232 228 224
284 281 280 279 279 279 280 278 277 278 277 277 278 280 282 281 279 279 280 284 284 285 286 287 284 283 284 281 280 283 281 275 264 256 251 250 246 243 240 236 234 231 228
285 283 279 280 280 282 286 288 287 284 285 284 283 284 283 280 280 283 285 285 284 285 284 285 284 282 282 280 279 281 282 278 272 264 256 251 247 242 240 238 236 234 231
288 286 285 284 286 287 288 291 293 291 288 287 289 287 283 284 283 283 283 284 283 283 282 282 282 281 279 277 276 278 278 276 273 266 263 256 248 243 242 239 237 234 232
289 288 290 291 291 292 294 295 296 296 295 293 292 292 290 289 288 286 285 284 284 284 282 281 280 278 276 274 273 274 275 274 272 270 265 261 253 245 242 239 238 235 232
291 290 290 291 293 296 298 298 299 300 299 297 296 294 294 292 290 289 287 286 285 284 282 280 278 276 274 272 271 271 271 270 269 267 265 261 256 249 242 240 240 236 231
294 294 295 296 299 301 302 303 304 304 303 302 300 297 295 294 292 290 288 286 284 283 281 279 277 275 273 271 269 268 268 266 264 263 261 257 254 250 244 241 239 235 231
299 300 302 304 306 307 307 307 306 305 304 302 301 299 297 295 293 292 290 288 286 284 281 279 276 274 272 271 269 266 265 264 261 260 258 255 252 250 246 242 238 236 233
305 305 305 307 308 309 309 309 309 308 307 305 303 301 299 298 296 294 292 289 287 285 282 280 278 276 273 271 268 265 262 261 259 257 256 253 252 249 246 242 238 234 232
307 310 311 311 312 313 312 312 311 310 309 307 305 303 301 299 297 295 293 290 288 286 284 282 279 276 274 271 269 265 262 260 259 256 254 252 250 247 244 241 235 233 231
312 314 315 315 315 314 313 312 311 310 309 307 305 303 302 300 298 297 295 292 289 287 284 282 280 277 274 272 269 266 263 260 258 257 254 250 248 245 242 240 235 231 229
314 315 315 315 314 313 313 312 310 308 307 306 304 303 302 301 299 296 295 293 290 287 285 282 280 277 274 272 269 267 263 260 258 255 254 250 247 243 241 238 235 230 228
313 314 314 314 313 313 313 313 312 311 310 308 307 306 304 303 301 299 297 294 291 288 285 283 280 277 274 271 269 266 263 260 257 254 252 250 247 242 240 236 234 230 228
311 312 314 315 316 316 316 316 316 316 316 314 313 311 309 307 305 303 300 297 294 290 286 283 280 276 273 270 268 265 263 260 257 254 251 247 245 242 239 235 233 231 228
Height
5906 5905 5905 5904 5904 5903 5903 5902 5903 5903 5903 5903 5903 5903 5903 5903 5903 5903 5903 5903 5903 5903 5903 5903 5902 5902 5901 5901 5900 5899 5899 5899 5899 5899 5899 5898 5898 5899 5899 5899 5900 5900 5900
5906 5905 5905 5904 5903 5903 5903 5902 5902 5902 5902 5903 5903 5903 5903 5903 5903 5903 5903 5903 5903 5903 5903 5903 5902 5902 5901 5901 5900 5900 5899 5899 5899 5899 5899 5899 5899 5899 5900 5900 5901 5901 5901
5906 5905 5904 5904 5903 5903 5902 5902 5902 5902 5902 5902 5902 5903 5903 5903 5903 5903 5903 5903 5902 5902 5902 5902 5902 5901 5901 5900 5900 5900 5899 5899 5899 5899 5899 5899 5899 5900 5900 5901 5902 5902 5902
5906 5905 5904 5903 5903 5902 5902 5902 5901 5901 5901 5901 5901 5902 5902 5902 5902 5902 5902 5901 5901 5901 5901 5901 5900 5900 5900 5900 5900 5899 5899 5899 5899 5899 5899 5900 5900 5900 5900 5901 5902 5903 5903
5905 5905 5904 5903 5902 5901 5901 5901 5901 5901 5901 5901 5900 5900 5900 5900 5900 5900 5900 5900 5899 5899 5899 5899 5899 5899 5899 5899 5899 5899 5898 5898 5899 5899 5899 5899 5900 5900 5900 5901 5902 5903 5903
5905 5904 5903 5902 5901 5901 5900 5900 5900 5900 5900 5899 5899 5899 5899 5899 5898 5898 5897 5897 5897 5897 5897 5897 5897 5897 5897 5897 5897 5897 5897 5897 5898 5898 5898 5899 5899 5899 5900 5900 5901 5902 5903
5904 5903 5902 5901 5900 5900 5899 5899 5899 5899 5898 5898 5898 5897 5897 5897 5896 5896 5895 5895 5894 5894 5894 5894 5894 5894 5894 5894 5894 5894 5895 5895 5896 5896 5897 5897 5898 5899 5899 5900 5901 5902 5903
5902 5902 5901 5900 5899 5899 5898 5898 5897 5897 5896 5896 5896 5895 5895 5894 5894 5893 5893 5892 5891 5891 5890 5890 5890 5890 5890 5891 5891 5891 5892 5892 5893 5894 5895 5895 5896 5897 5898 5898 5899 5901 5902
5901 5900 5899 5898 5898 5897 5897 5896 5895 5895 5894 5894 5893 5893 5892 5892 5891 5890 5890 5889 5888 5888 5887 5887 5886 5886 5886 5887 5887 5888 5888 5889 5890 5891 5892 5893 5894 5895 5896 5897 5898 5899 5901
5899 5898 5897 5896 5895 5895 5894 5894 5893 5893 5892 5891 5891 5890 5889 5889 5888 5887 5887 5886 5885 5884 5883 5883 5882 5882 5882 5882 5882 5883 5884 5885 5886 5887 5888 5889 5891 5892 5893 5895 5896 5897 5899
5895 5894 5894 5893 5892 5891 5891 5890 5889 5889 5888 5887 5886 5886 5885 5885 5884 5883 5882 5882 5881 5880 5879 5879 5878 5877 5877 5877 5877 5878 5879 5880 5881 5882 5884 5885 5887 5889 5890 5892 5893 5895 5896
5891 5890 5890 5889 5888 5887 5887 5886 5885 5884 5883 5882 5882 5881 5881 5880 5879 5878 5878 5877 5876 5875 5875 5874 5873 5872 5872 5872 5871 5872 5873 5874 5876 5877 5879 5880 5882 5884 5886 5888 5890 5892 5894
5887 5886 5885 5884 5883 5883 5882 5881 5880 5878 5877 5876 5876 5875 5875 5874 5873 5873 5872 5871 5870 5870 5869 5868 5868 5867 5866 5866 5866 5866 5867 5868 5869 5871 5873 5875 5877 5879 5881 5884 5886 5888 5890
5883 5882 5881 5879 5878 5877 5876 5875 5873 5872 5871 5870 5870 5869 5868 5867 5867 5866 5865 5864 5864 5863 5862 5862 5861 5860 5860 5860 5860 5860 5860 5861 5863 5865 5866 5868 5871 5873 5876 5878 5881 5883 5886
5878 5877 5876 5875 5873 5872 5870 5868 5867 5866 5866 5865 5864 5863 5862 5861 5860 5859 5859 5858 5857 5856 5856 5855 5855 5854 5854 5853 5853 5854 5854 5855 5856 5858 5860 5861 5864 5867 5869 5872 5875 5878 5880
5874 5872 5871 5870 5868 5867 5865 5863 5862 5861 5860 5859 5858 5856 5855 5854 5853 5852 5851 5850 5850 5849 5848 5849 5848 5847 5847 5846 5847 5847 5848 5848 5849 5851 5853 5854 5857 5860 5863 5866 5869 5872 5875
5869 5868 5867 5866 5864 5863 5861 5860 5858 5856 5855 5854 5852 5851 5848 5847 5846 5845 5844 5843 5842 5841 5841 5841 5840 5840 5840 5840 5840 5840 5841 5842 5843 5844 5846 5847 5849 5852 5856 5859 5862 5865 5868
5865 5864 5863 5862 5860 5858 5856 5855 5852 5851 5849 5848 5846 5844 5842 5841 5839 5838 5836 5836 5834 5834 5833 5832 5832 5832 5832 5832 5833 5833 5834 5834 5835 5837 5838 5840 5842 5845 5848 5851 5854 5857 5861
5861 5860 5859 5857 5855 5854 5852 5850 5847 5845 5843 5841 5839 5837 5835 5833 5832 5830 5829 5827 5826 5825 5824 5824 5824 5823 5823 5823 5824 5825 5826 5827 5828 5829 5831 5832 5834 5837 5840 5843 5846 5850 5853
5857 5855 5854 5852 5850 5848 5846 5844 5842 5839 5837 5834 5832 5830 5828 5826 5824 5822 5820 5818 5817 5816 5815 5815 5814 5814 5814 5815 5815 5817 5818 5818 5820 5821 5823 5824 5826 5829 5831 5834 5838 5842 5846
5852 5851 5850 5848 5846 5844 5841 5838 5836 5833 5830 5828 5825 5822 5820 5818 5816 5814 5812 5810 5808 5807 5806 5805 5805 5805 5805 5805 5806 5808 5809 5810 5811 5813 5814 5816 5818 5821 5823 5826 5829 5833 5838
5849 5847 5846 5844 5841 5838 5836 5833 5829 5826 5823 5820 5817 5815 5812 5810 5807 5805 5803 5801 5799 5798 5796 5796 5795 5795 5795 5795 5796 5798 5799 5802 5802 5804 5805 5807 5810 5812 5814 5817 5821 5825 5829
5846 5844 5841 5839 5836 5833 5830 5827 5823 5820 5816 5813 5810 5807 5805 5802 5799 5797 5795 5793 5790 5789 5787 5786 5786 5786 5785 5785 5786 5788 5789 5791 5793 5795 5796 5798 5801 5803 5806 5809 5813 5817 5821
5843 5840 5838 5835 5832 5829 5825 5821 5818 5814 5810 5807 5803 5800 5797 5794 5791 5789 5786 5784 5782 5780 5778 5777 5776 5776 5776 5776 5776 5777 5779 5781 5783 5785 5787 5788 5791 5794 5797 5801 5804 5808 5813
5840 5838 5835 5832 5828 5824 5820 5816 5812 5808 5804 5800 5796 5792 5789 5785 5782 5780 5777 5775 5772 5770 5768 5767 5766 5766 5766 5766 5766 5767 5768 5770 5772 5775 5777 5779 5782 5785 5788 5792 5796 5800 5804
5838 5835 5831 5828 5824 5819 5815 5810 5806 5801 5797 5792 5788 5784 5781 5777 5774 5771 5768 5765 5763 5761 5759 5757 5756 5755 5755 5755 5756 5756 5758 5760 5762 5764 5767 5769 5772 5776 5779 5783 5787 5791 5796